Tracking 17859 objects as of 22-October-2016
HD Live streaming from Space Station
objects crossing your sky now


Track SWISSCUBE now!
10-day predictions
SWISSCUBE is classified as:

NORAD ID: 35932
Int'l Code: 2009-051B
Perigee: 708.9 km
Apogee: 718.2 km
Inclination: 98.5 °
Period: 98.9 minutes
Semi major axis: 7084 km
RCS: 0.05 m2 (small)
Launch date: September 23, 2009
Source: (SWTZ)
Launch site: SIRHARIKOTA (SRI)
Uplink (MHz):
Downlink (MHz): 437.505
Beacon (MHz): 437.505
Mode: 1200bps BFSK CW
Call sign: HB9EG1
Status: Active

SWISSCUBE is Switzerland's first satellite and will try to detect a phenomenon known as airglow using an off-the-shelf sensor.
Your satellite tracking list
Your tracking list is empty

NASA's NSSDC Master Catalog

Two Line Element Set (TLE):
1 35932U 09051B   16296.35260588  .00000295  00000-0  77938-4 0  9992
2 35932  98.4652  65.0840 0006566 259.9101 100.1355 14.55898754375715
Source of the keplerian elements: Caltech